Location: Milo
(50.5667°N, 112.8833°W)
Time: 06:52:08
(UTC+00:00)

N. Korean satellite - Pass Details

Date: 10 December 2021
Orbit: 446 x 492 km, 97.3° (Epoch: 18 January)

Event Time Altitude Azimuth Distance (km) Brightness Sun altitude
Rises 23:57:06 0° 172° (S) 2,508 10.5 -4.8°
Reaches altitude 10° 23:59:11 10° 175° (S) 1,627 9.6 -5.1°
Maximum altitude 00:02:39 66° 258° (WSW) 511 7.0 -5.6°
Drops below altitude 10° 00:06:01 11° 342° (NNW) 1,584 9.1 -6.0°
Sets 00:08:09 0° 345° (NNW) 2,487 10.0 -6.3°
